GW2364 Weather Reports


Display with metric or nautical units.
time (UTC)temp
F
wind
direction
speed
MPH
gust
MPH
rain 1hr
in
rain 24hr
in
rain mn
in
humidity
%
barometer
mb
20260506134500 75 62 1.0 3.0 0.00 0.00 0.00 91 1007.7
20260506133001 74 92 1.0 4.0 0.00 0.00 0.00 92 1007.8
20260506131504 74 65 1.0 6.0 0.00 0.00 0.00 93 1007.6
20260506130004 74 80 0.0 3.0 0.00 0.00 0.00 93 1007.4
20260506124501 74 125 1.0 4.0 0.00 0.00 0.00 93 1007.2
20260506123002 73 71 1.0 2.0 0.00 0.00 0.00 93 1007.2
20260506121601 73 223 0.0 1.0 0.00 0.00 0.00 93 1007.3
20260506120115 74 223 0.0 1.0 0.00 0.00 0.00 93 1007.2
20260506120006 74 223 0.0 1.0 0.00 0.00 0.00 93 1007.1
20260506114502 74 223 0.0 1.0 0.00 0.00 0.00 92 1007.0
20260506113101 74 223 0.0 1.0 0.00 0.00 0.00 92 1007.2
20260506111601 74 223 0.0 0.0 0.00 0.00 0.00 92 1007.1
20260506110100 74 223 0.0 1.0 0.00 0.00 0.00 92 1007.1
20260506110004 74 223 0.0 1.0 0.00 0.00 0.00 92 1007.1
20260506104602 74 223 0.0 1.0 0.00 0.00 0.00 92 1007.0
20260506103101 74 227 0.0 2.0 0.00 0.00 0.00 92 1006.7
20260506101632 74 227 1.0 5.0 0.00 0.00 0.00 92 1006.6
20260506100106 74 237 1.0 5.0 0.00 0.00 0.00 92 1006.5
20260506100004 74 232 0.0 4.0 0.00 0.00 0.00 92 1006.5
20260506094614 74 233 1.0 5.0 0.00 0.00 0.00 93 1006.4
20260506093100 74 234 1.0 5.0 0.00 0.00 0.00 93 1006.2
20260506091606 74 241 1.0 7.0 0.00 0.00 0.00 93 1006.0
20260506090008 74 85 1.0 4.0 0.00 0.00 0.00 91 1005.9
20260506084602 74 228 2.0 9.0 0.00 0.00 0.00 91 1005.9
20260506083106 74 257 2.0 7.0 0.00 0.00 0.00 91 1006.0
20260506083002 75 100 2.0 7.0 0.00 0.00 0.00 91 1005.9
20260506081600 74 223 1.0 7.0 0.00 0.00 0.00 90 1006.0
20260506080110 75 204 0.0 3.0 0.00 0.00 0.00 90 1006.1
20260506073114 75 145 0.0 7.0 0.00 0.00 0.00 90 1006.3
20260506071602 75 342 2.0 8.0 0.00 0.00 0.00 90 1006.4
20260506061609 75 223 0.0 4.0 0.00 0.00 0.00 90 1006.5
20260506044502 75 217 0.0 6.0 0.00 0.00 0.00 90 1006.5
20260506043002 75 94 1.0 4.0 0.00 0.00 0.00 89 1006.5
20260506041502 76 100 0.0 6.0 0.00 0.00 0.00 88 1006.3
20260506040008 76 78 1.0 6.0 0.00 0.00 0.00 88 1006.3
20260506034502 76 64 1.0 8.0 0.00 0.00 0.00 88 1006.1
20260506033002 76 115 0.0 4.0 0.00 0.00 0.00 88 1006.1
20260506031504 76 180 1.0 5.0 0.00 0.00 0.00 87 1005.8
20260506030005 77 92 1.0 7.0 0.00 0.00 0.00 86 1005.6
20260506024503 77 76 2.0 8.0 0.00 0.00 0.00 85 1005.4
20260506023002 77 82 0.0 5.0 0.00 0.00 0.00 84 1005.0
20260506021502 77 79 0.0 4.0 0.00 0.00 0.00 84 1004.7
20260506020003 77 103 1.0 4.0 0.00 0.00 0.00 83 1004.4
20260506014501 78 68 1.0 3.0 0.00 0.00 0.00 83 1004.4
20260506013002 78 78 1.0 3.0 0.00 0.00 0.00 82 1004.3
20260506011505 79 111 1.0 3.0 0.00 0.00 0.00 80 1004.3
20260506010005 80 90 0.0 2.0 0.00 0.00 0.00 78 1004.3
20260506004508 81 106 0.0 2.0 0.00 0.00 0.00 77 1004.3
20260506003002 82 106 0.0 1.0 0.00 0.00 0.00 75 1004.2
20260506001502 82 252 1.0 3.0 0.00 0.00 0.00 75 1004.3
20260506000004 82 252 2.0 7.0 0.00 0.00 0.00 73 1004.1
20260505234502 83 217 0.0 5.0 0.00 0.00 0.00 73 1003.9
20260505233002 83 169 1.0 5.0 0.00 0.00 0.00 72 1003.8
20260505231502 83 224 2.0 8.0 0.00 0.00 0.00 72 1003.8
20260505230007 83 223 3.0 9.0 0.00 0.00 0.00 70 1003.7
20260505224502 84 248 4.0 9.0 0.00 0.00 0.00 69 1003.7
20260505223002 84 223 4.0 11.0 0.00 0.00 0.00 69 1003.7
20260505221503 85 244 2.0 8.0 0.00 0.00 0.00 68 1003.7
20260505220003 85 295 2.0 12.0 0.00 0.00 0.00 68 1003.7
20260505214505 85 218 3.0 12.0 0.00 0.00 0.00 67 1004.1
20260505213003 85 243 4.0 13.0 0.00 0.00 0.00 67 1004.2
20260505211502 86 240 6.0 11.0 0.00 0.00 0.00 66 1004.1
20260505210004 85 192 2.0 10.0 0.00 0.00 0.00 69 1004.5
20260505204502 85 288 2.0 9.0 0.00 0.00 0.00 69 1004.5
20260505203002 84 215 2.0 12.0 0.00 0.00 0.00 70 1004.9
20260505201501 85 108 2.0 8.0 0.00 0.00 0.00 70 1005.1
20260505200005 84 236 5.0 11.0 0.00 0.00 0.00 70 1005.4
20260505194501 83 55 2.0 6.0 0.00 0.00 0.00 72 1005.5
20260505193001 83 333 3.0 9.0 0.00 0.00 0.00 73 1005.8
20260505191501 82 217 2.0 11.0 0.00 0.00 0.00 73 1005.8
20260505190005 82 278 2.0 9.0 0.00 0.00 0.00 72 1005.9
20260505184501 82 230 2.0 9.0 0.00 0.00 0.00 74 1006.1
20260505183001 81 275 5.0 11.0 0.00 0.00 0.00 74 1006.2
20260505181502 79 217 3.0 9.0 0.00 0.00 0.00 78 1006.6
20260505180004 78 213 3.0 10.0 0.00 0.00 0.00 80 1006.5
20260505174502 77 205 5.0 11.0 0.00 0.00 0.00 80 1006.8
20260505173002 76 250 4.0 11.0 0.00 0.00 0.00 81 1006.9
20260505171502 76 233 4.0 10.0 0.00 0.00 0.00 82 1006.9
20260505170003 75 234 3.0 10.0 0.00 0.00 0.00 84 1007.1
20260505164501 74 225 4.0 11.0 0.00 0.00 0.00 85 1007.2
20260505163000 73 254 5.0 12.0 0.00 0.00 0.00 86 1007.0
20260505161501 73 238 4.0 9.0 0.00 0.00 0.00 87 1007.1
20260505153004 71 223 2.0 8.0 0.00 0.00 0.00 90 1007.4
20260505151601 71 225 3.0 8.0 0.00 0.00 0.00 91 1007.3
20260505151500 70 242 3.0 8.0 0.00 0.00 0.00 91 1007.2